Location: *
(46.0770°N, 1.6444°E)
Time: 00:34:48
(UTC+00:00)

Timation 2 Rocket - Pass Details

Date: 16 September 2019
Orbit: 908 x 1074 km, 70.0° (Epoch: 13 October)

Event Time Altitude Azimuth Distance (km) Brightness Sun altitude
Rises 18:36:10 0° 190° (S) 3,796 7.1 -6.4°
Reaches altitude 10° 18:38:52 10° 186° (S) 2,827 6.4 -6.9°
Maximum altitude 18:45:16 54° 111° (ESE) 1,206 4.2 -8.0°
Drops below altitude 10° 18:51:26 10° 36° (NE) 2,730 6.1 -9.0°
Sets 18:53:59 0° 32° (NNE) 3,657 6.8 -9.4°
